Location: Mason Neck State Park
(38.6428°N, 77.1981°W)
Time: 14:01:16
(UTC-04:00)

Daily predictions for brighter satellites

Satellite Brightness Start Highest point End
(mag) Time Altitude Azimuth Time Altitude Azimuth Time Altitude Azimuth
Helios 1A 3.2 20:09:48 10° S 20:13:57 80° WSW 20:18:10 10° NNW
Cosmos 1809 Rocket 4.5 20:08:51 10° S 20:14:57 66° E 20:21:02 10° NNE
NOSS 3-4 (A) 4.4 20:09:01 10° NNW 20:15:38 43° NE 20:22:36 10° ESE
NOSS 3-4 (C) 4.4 20:09:08 10° NNW 20:15:46 42° NE 20:22:42 10° ESE
Cosmos 1892 Rocket 4.1 20:12:08 10° N 20:16:22 39° ENE 20:20:34 10° SSE
Resurs 1-3 3.6 20:13:16 10° SSE 20:17:39 84° ENE 20:22:04 10° N
Okean 2 4.1 20:15:18 10° NNE 20:19:08 34° ENE 20:22:56 10° SE
Cosmos 1602 4.4 20:15:42 10° SSW 20:19:37 62° W 20:23:33 10° N
Cosmos 1455 Rocket 3.7 20:17:28 10° SSE 20:21:20 33° E 20:25:14 10° NNE
Cosmos 1025 Rocket 3.0 20:17:36 10° N 20:21:59 76° E 20:26:18 10° SSE
Cosmos 2219 3.4 20:16:51 10° NNW 20:22:29 80° WSW 20:28:05 10° SSE
Spot 2 Rocket 4.0 20:18:48 10° S 20:23:52 65° WSW 20:28:56 10° NNW
Cosmos 1570 Rocket 4.3 20:22:18 10° S 20:27:22 48° ESE 20:32:26 10° NNE
Resurs 01 Rocket 2.6 20:27:59 10° S 20:32:16 50° W 20:36:36 10° NNW
Cosmos 1934 Rocket 4.0 20:26:44 10° S 20:32:42 62° E 20:38:49 10° NNE
Cosmos 1461 4.2 20:31:08 10° N 20:34:29 24° NE 20:37:13 13° E
Envisat 4.4 20:31:01 10° ESE 20:34:33 20° ENE 20:38:12 10° NNE
Meteor 2-4 Rocket 3.8 20:28:50 10° N 20:34:43 85° E 20:40:38 10° S
Lacrosse 5 rocket 3.1 20:32:29 10° N 20:34:57 17° NNE 20:37:22 10° ENE
Cosmos 1315 Rocket 3.8 20:31:25 10° SSW 20:35:18 52° WNW 20:39:17 10° N
Cosmos 2278 3.9 20:33:26 10° S 20:38:52 50° ESE 20:44:21 10° NNE
Cosmos 1697 Rocket 4.0 20:36:01 10° SE 20:39:34 17° E 20:43:07 10° ENE
Tiangong 1 1.9 20:38:37 10° W 20:41:39 48° NNW 20:44:40 10° ENE
CZ-4 DEB 4.0 20:42:04 16° ESE 20:43:38 23° ENE 20:46:13 10° NNE
DELTA 2 R/B (1) 3.7 20:38:20 10° W 20:43:55 80° N 20:49:03 12° E
NOSS 7 (E) 4.4 20:41:49 10° SSW 20:45:25 65° ESE 20:48:46 10° NE
USA 186 1.6 20:44:35 10° SSE 20:47:44 72° ENE 20:50:44 10° N
H-2A R/B 2.7 20:45:38 10° SSE 20:49:28 89° ENE 20:53:24 10° NNW
OTV 4 0.3 20:47:43 10° W 20:50:41 79° S 20:52:22 23° E
CZ-4B DEB 4.1 20:47:50 10° S 20:50:58 42° W 20:54:07 10° NNW
Cosmos 2369 3.7 20:46:14 10° S 20:51:45 57° ESE 20:57:19 10° NNE
Meteor 1-23 Rocket 4.5 20:46:08 10° NNW 20:51:46 75° W 20:57:26 10° S
Delta 2 Rocket 4.1 20:48:34 10° W 20:54:06 60° S 20:57:38 20° ESE
Cosmos 1939 Rocket 4.0 20:52:33 19° ESE 20:54:36 28° ENE 20:58:10 10° NNE
Cosmos 1544 Rocket 3.9 20:50:32 10° SSW 20:54:52 70° W 20:59:16 10° N
Iridium 4 Rocket 3.9 20:51:25 10° NNE 20:56:15 39° E 20:59:35 16° SE
OAO 2 Rocket 3.9 20:56:31 10° SW 21:01:12 40° SSE 21:03:59 22° ESE
Cosmos 1980 Rocket 3.8 21:02:28 15° E 21:02:28 15° E 21:04:27 10° ENE
CZ-2D R/B 4.1 21:00:42 10° S 21:04:27 51° W 21:08:15 10° NNW
ERS-1 Rocket 3.0 21:07:31 19° SSE 21:11:02 58° ENE 21:15:59 10° N
Hubble Space Telescope 2.7 21:08:35 10° SW 21:11:15 17° S 21:12:19 15° S
Cosmos 1898 Rocket 4.4 21:07:57 10° N 21:12:42 32° ENE 21:14:34 25° E
SL-24 R/B - RUBIN 2 4.5 21:08:52 10° S 21:14:20 49° ESE 21:20:27 10° NE
Cosmos 1605 Rocket 4.1 21:09:17 10° S 21:15:40 86° W 21:22:00 10° N
Cosmos 1346 Rocket 3.4 21:14:12 10° NNW 21:18:03 56° W 21:21:51 11° S
Cosmos 2061 Rocket 4.5 21:15:45 21° SE 21:19:15 38° E 21:24:59 10° NNE
Cosmos 2100 Rocket 4.3 21:17:21 19° SSE 21:21:36 44° E 21:27:29 10° NNE
RESURS DK-1 4.2 21:20:18 10° NNE 21:23:06 17° NE 21:23:22 17° ENE
Cosmos 2227 Rocket 2.2 21:23:17 10° NNW 21:28:58 83° WSW 21:32:24 25° SSE
YAOGAN 11 4.2 21:26:25 21° S 21:29:24 79° WSW 21:33:54 10° NNW
ALOS 4.2 21:28:07 10° SSW 21:32:04 27° W 21:36:03 10° NW
Cosmos 468 Rocket 4.0 21:29:32 20° S 21:32:56 52° ESE 21:37:55 10° NNE
Cosmos 1500 3.0 21:34:20 54° SSE 21:35:02 72° E 21:38:48 10° NNE
Cosmos 1825 Rocket 4.3 21:34:28 10° N 21:38:16 34° ENE 21:38:16 34° ENE
BREEZE-M DEB (TANK) 4.0 21:22:13 10° SW 21:39:17 84° SSE 21:42:56 19° ENE
Cosmos 1814 Rocket 4.1 21:37:53 33° SSE 21:39:55 52° ESE 21:45:05 10° NNE
Cosmos 1656 3.5 21:34:39 10° SSW 21:40:17 82° ESE 21:45:53 10° NNE
Cosmos 2082 3.9 21:35:59 10° NNW 21:41:34 69° WSW 21:44:32 28° S
Cosmos 2297 Rocket 2.1 21:39:09 10° NNW 21:44:50 86° WSW 21:47:09 38° SSE
USA 215 4.3 21:42:02 21° ENE 21:45:29 35° NNE 21:51:15 10° NNW
H-2A R/B 1.7 21:49:23 73° SE 21:49:41 79° ENE 21:53:48 10° N
Lacrosse 5 2.9 21:46:02 10° NNW 21:50:37 33° NE 21:51:36 31° ENE
Cosmos 1340 4.2 21:49:21 10° N 21:51:29 26° NE 21:51:29 26° NE
SPOT 5 2.9 21:52:31 55° SE 21:53:33 72° ENE 21:58:27 10° N
deb Chang Zheng 4 3.6 21:51:01 10° N 21:55:30 82° WNW 21:57:05 40° SSW
Cosmos 1515 4.3 21:54:53 10° NNW 21:58:38 51° W 21:59:09 47° WSW
Cosmos 858 Rocket 4.4 21:53:52 10° NNW 21:59:10 74° ENE 21:59:55 63° SE
Cosmos 2298 Rocket 3.9 21:54:27 10° NNW 21:59:48 88° WSW 22:00:56 57° SSE
Cosmos 1459 Rocket 3.8 21:59:01 29° S 22:02:18 89° E 22:08:25 10° N
Cosmos 1743 3.4 22:06:26 48° N 22:06:26 48° N 22:09:20 10° N
H-2A R/B 3.4 22:10:13 24° NE 22:10:13 24° NE 22:13:17 10° NNE
YAOGAN 6 3.8 22:12:12 40° NNW 22:12:12 40° NNW 22:14:40 10° NNW
Envisat 3.8 22:11:14 31° SSW 22:13:12 45° W 22:18:05 10° NNW
Cosmos 1461 4.4 22:10:11 10° NW 22:13:37 27° WSW 22:13:43 27° WSW
Lacrosse 5 rocket 2.3 22:10:53 10° NW 22:13:22 38° WNW 22:13:22 38° WNW
Cosmos 2098 Rocket 4.2 22:14:27 56° SE 22:15:22 61° E 22:21:35 10° NNE
MetOp-A 4.1 22:15:54 65° SSW 22:16:39 79° WSW 22:22:02 10° NNW
GEOS 3 Rocket 4.4 22:12:04 10° NE 22:15:07 36° NE 22:15:07 36° NE
Tiangong 1 3.7 22:15:34 10° WNW 22:16:48 20° NW 22:16:48 20° NW
Cosmos 1937 Rocket 3.4 22:15:43 10° NNW 22:21:00 88° WSW 22:21:02 88° SW
Cosmos 1697 Rocket 3.1 22:17:23 10° SW 22:22:57 60° WNW 22:28:34 10° NNE
Cosmos 2058 Rocket 4.5 22:25:44 31° NNE 22:25:44 31° NNE 22:28:09 10° NNE
Cosmos 1802 Rocket 4.1 22:20:59 35° SSW 22:23:53 74° W 22:30:19 10° N
SL-16 R/B 4.4 22:29:58 13° NE 22:29:58 13° NE 22:30:36 10° NE
Cosmos 2150 Rocket 4.3 22:21:56 10° NNW 22:26:58 56° WSW 22:27:17 55° WSW
SPOT 1/Viking Rocket 3.5 22:28:06 79° N 22:28:06 79° N 22:33:01 10° NNW
NOAA 11 4.1 22:29:44 80° NE 22:29:44 80° NE 22:35:01 10° NNW
DELTA 2 R/B (1) 3.7 22:24:53 10° W 22:29:48 66° WSW 22:29:48 66° WSW
SL-08 R/B 4.4 22:30:45 73° S 22:31:26 89° E 22:37:39 10° N
ASTEX 1 3.8 22:27:54 10° N 22:32:51 61° W 22:33:04 60° W
Terra 3.4 22:40:16 27° NNE 22:40:16 27° NNE 22:42:47 10° N
Cosmos 990 Rocket 4.2 22:33:13 10° NNW 22:37:48 67° NNW 22:37:48 67° NNW
Cosmos 1980 Rocket 2.4 22:44:07 63° W 22:44:34 66° WNW 22:50:15 10° NNE
Cosmos 2016 Rocket 4.4 22:43:28 46° SW 22:45:00 59° W 22:51:06 10° N
CZ-4B R/B 4.2 22:40:45 10° N 22:44:01 44° N 22:44:01 44° N
ARGOS 3.5 22:49:32 62° WNW 22:49:32 62° WNW 22:54:19 10° NNW
Tsikada Rocket 4.4 23:06:38 10° NNW 23:12:34 61° WNW 23:12:34 61° WNW
Cosmos 2322 Rocket 3.8 23:18:34 26° NNE 23:18:34 26° NNE 23:20:55 10° NNE
Cosmos 2263 Rocket 3.7 23:11:27 10° N 23:14:41 29° NNE 23:14:41 29° NNE
Milstar 3 Cent rocket 4.4 23:14:27 10° W 23:26:27 38° SW 23:26:27 38° SW
USA 215 3.6 23:29:23 60° WNW 23:29:23 60° WNW 23:34:40 10° NW
Lacrosse 5 4.0 23:28:53 10° NW 23:30:48 22° WNW 23:30:48 22° WNW
H-2A R/B 4.1 23:50:51 22° NW 23:50:51 22° NW 23:52:57 10° NNW
